Weather History for Roseburg, OR

Change the Weather History Date:

Saturday, November 26, 2011

  Actual Average Record
Temperature  
Mean Temperature 49 °F 44 °F  
Max Temperature 58 °F 50 °F 66 °F (1998)
Min Temperature 39 °F 39 °F 23 °F (1952)
Degree Days  
Heating Degree Days 16 21  
Month to date heating degree days 474 459  
Since 1 July heating degree days 788 845  
Cooling Degree Days 0 0  
Month to date cooling degree days 0 0  
Year to date cooling degree days 446 480  
Moisture  
Dew Point 41 °F    
Average Humidity 75    
Maximum Humidity 92    
Minimum Humidity 57    
Precipitation  
Precipitation 0.00 in 0.24 in 1.10 in (1971)
Month to date precipitation 3.89 5.40  
Year to date precipitation 27.50 28.68  
Sea Level Pressure  
Sea Level Pressure 30.33 in    
Wind  
Wind Speed 1 mph (SE)    
Max Wind Speed 8 mph    
Max Gust Speed 10 mph    
Visibility 10 miles    
Events      
T = Trace of Precipitation, MM = Missing Value Source: NWS Daily Summary

Daily Weather History Graph

Daily Weather History Graph

Search for Another Location

Airport:

Trip Planner

Search our weather history database for the weather conditions in past years. The results will help you decide how hot, cold, wet, or windy it might be!

Date:

Astronomy

Nov. 26, 2011 Rise Set
Actual Time 7:19 AM PST 4:41 PM PST
Civil Twilight 6:48 AM PST 5:12 PM PST
Nautical Twilight 6:13 AM PST 5:48 PM PST
Astronomical Twilight 5:38 AM PST 6:22 PM PST
Moon 8:57 AM PST 6:17 PM PST
Length of Visible Light 10h 24m
Length of Day
9h 21m
Waxing Crescent, 4% of the Moon is Illuminated
Nov 26
Waxing Crescent
Dec 2
First Quarter
Dec 10
Full
Dec 17
Last Quarter
Dec 24
New

Hourly Weather History & Observations

Time (PST) Temp. Dew Point Humidity Pressure Visibility Wind Dir Wind Speed Gust Speed Precip Events Conditions
12:53 AM 43.0 °F 39.9 °F 89% 30.41 in 10.0 mi Calm Calm - N/A   Mostly Cloudy
1:53 AM 44.1 °F 41.0 °F 89% 30.42 in 10.0 mi Calm Calm - N/A   Overcast
2:53 AM 44.1 °F 41.0 °F 89% 30.42 in 10.0 mi Calm Calm - N/A   Overcast
3:53 AM 44.1 °F 41.0 °F 89% 30.41 in 10.0 mi Calm Calm - N/A   Overcast
4:53 AM 42.1 °F 39.0 °F 89% 30.41 in 10.0 mi Calm Calm - N/A   Partly Cloudy
5:53 AM 41.0 °F 37.9 °F 89% 30.40 in 10.0 mi Calm Calm - N/A   Clear
7:53 AM 39.9 °F 37.9 °F 93% 30.41 in 10.0 mi Calm Calm - N/A   Clear
8:53 AM 43.0 °F 39.9 °F 89% 30.41 in 10.0 mi Calm Calm - N/A   Clear
9:53 AM 46.9 °F 39.9 °F 77% 30.41 in 10.0 mi SSE 5.8 mph - N/A   Clear
10:53 AM 48.9 °F 39.9 °F 71% 30.39 in 10.0 mi SE 5.8 mph - N/A   Clear
11:53 AM 54.0 °F 41.0 °F 62% 30.36 in 10.0 mi Calm Calm - N/A   Clear
12:53 PM 55.9 °F 42.1 °F 60% 30.34 in 10.0 mi Calm Calm - N/A   Clear
1:53 PM 57.0 °F 42.1 °F 57% 30.30 in 10.0 mi SE 3.5 mph - N/A   Clear
2:53 PM 57.9 °F 42.1 °F 56% 30.28 in 10.0 mi Calm Calm - N/A   Clear
3:53 PM 57.0 °F 43.0 °F 59% 30.28 in 10.0 mi Calm Calm - N/A   Clear
4:53 PM 54.0 °F 45.0 °F 72% 30.27 in 10.0 mi Calm Calm - N/A   Clear
5:53 PM 52.0 °F 45.0 °F 77% 30.27 in 10.0 mi Calm Calm - N/A   Clear
6:53 PM 48.0 °F 44.1 °F 86% 30.26 in 10.0 mi Calm Calm - N/A   Clear
8:53 PM 46.9 °F 43.0 °F 86% 30.24 in 10.0 mi Calm Calm - N/A   Clear
9:53 PM 46.9 °F 43.0 °F 86% 30.23 in 10.0 mi Calm Calm - N/A   Clear
10:53 PM 45.0 °F 42.1 °F 90% 30.22 in 10.0 mi Calm Calm - N/A   Clear
11:53 PM 44.1 °F 41.0 °F 89% 30.22 in 8.0 mi Calm Calm - N/A   Clear